Location: Enborne
(51.3833°N, 1.3667°W)
Time: 22:50:10
(UTC+00:00)

IGS 5A - Pass Details

Date: 18 September 2020
Orbit: 583 x 588 km, 97.6° (Epoch: 09 October)

Event Time Altitude Azimuth Distance (km) Brightness Sun altitude
Exits shadow 21:13:36 56° 313° (NW) 700 4.0 -26.6°
Drops below altitude 10° 21:17:03 10° 342° (NNW) 1,919 6.8 -27.0°
Sets 21:19:14 0° 345° (NNW) 2,824 7.8 -27.3°
